AirNav   Everest Fuels
 
 1251 users online  

E05 Hatch Municipal Airport
Hatch, New Mexico, USA

GOING TO HATCH?


FAA INFORMATION EFFECTIVE 18 JUNE 2020

Location

FAA Identifier: E05
Lat/Long: 32-39-37.0512N 107-11-43.4721W
32-39.617520N 107-11.724535W
32.6602920,-107.1954089
(estimated)
Elevation: 4128.9 ft. / 1258.5 m (surveyed)
Variation: 11E (1985)
From city: 3 miles SW of HATCH, NM
Time zone: UTC -6 (UTC -7 during Standard Time)
Zip code: 87937

Airport Operations

Airport use: Open to the public
Activation date: 02/1953
Control tower: no
ARTCC: ALBUQUERQUE CENTER
FSS: ALBUQUERQUE FLIGHT SERVICE STATION
NOTAMs facility: ABQ (NOTAM-D service available)
Attendance: UNATNDD
Wind indicator: lighted
Segmented circle: no
Lights: ACTVT ODALS RYS 11 & 29 - CTAF.
Beacon: white-green (lighted land airport)
Operates sunset to sunrise.

Airport Communications

CTAF: 122.9

Nearby radio navigation aids

VOR radial/distance  VOR name  Freq  Var
DMNr030/31.0DEMING VORTAC108.6012E
TCSr160/37.6TRUTH OR CONSEQUENCES VOR112.7013E

Airport Services

Parking: tiedowns
Airframe service: NONE
Powerplant service: NONE
Bottled oxygen: NONE
Bulk oxygen: NONE

Runway Information

Runway 11/29

Dimensions: 4110 x 60 ft. / 1253 x 18 m
Surface: asphalt, in good condition
Weight bearing capacity: 
PCN 3 /F/D/Y/T
Single wheel: 9.0
RUNWAY 11  RUNWAY 29
Latitude: 32-39.746167N32-39.488873N
Longitude: 107-12.095028W107-11.354040W
Elevation: 4128.9 ft.4124.9 ft.
Traffic pattern: leftleft
Runway heading: 101 magnetic, 112 true281 magnetic, 292 true
Markings: basic, in fair conditionbasic, in fair condition
Visual slope indicator: panels that may or may not be lighted, on left
APAP LGTD. OUT OF SERVICE INDEFINITELY.
panels that may or may not be lighted, on left
APAP LGTD.
Approach lights: NSTD
NSTD ODALS. OUT OF SERVICE INDEFINITELY.
NSTD
NSTD ODALS.

Airport Ownership and Management from official FAA records

Ownership: Publicly-owned
Owner: VILLAGE OF HATCH
BOX 220
HATCH, NM 87937
Phone 575-267-5216
Manager: SLIM WHITLOCK
P.O. BOX 220
HATCH, NM 87937
Phone 575-267-5216
EMERGENCY PHONE: 575-649-6211 (C)

Airport Operational Statistics

Aircraft operations: avg 48/week *
90% local general aviation
6% transient general aviation
4% military
* for 12-month period ending 24 March 2020

Additional Remarks

A58-11 4-6 FT BRUSH 0-200 FT FM THLD 80 FT R.
VEHICLE ACCESS GATE CODE 4080.
MIKE CASTILLO-DIR. PUB. WORKS 575-644-1282
FOR CD CTC ALBUQUERQUE ARTCC AT 505-856-4861.

Instrument Procedures

There are no published instrument procedures at E05.

Some nearby airports with instrument procedures:

KLRU - Las Cruces International Airport (26 nm SE)
KTCS - Truth or Consequences Municipal Airport (35 nm N)
KDMN - Deming Municipal Airport (36 nm SW)
KSVC - Grant County Airport (49 nm W)
KDNA - Dona Ana County International Jetport Airport (53 nm SE)
 
Loc | Ops | Rwys | IFR | FBO | Links
Com | Nav | Svcs | Stats | Notes

AirBoss

 
Area around E05 (Hatch Municipal Airport)
 
Road maps at: MapQuest Bing Google
 
Aerial photo
WARNING: Photo may not be current or correct
Aerial photo of E05 (Hatch Municipal Airport)
Photo by Richard Clayton

Do you have a better or more recent aerial photo of Hatch Municipal Airport that you would like to share? If so, please send us your photo.

 
Sectional chart

 
Airport distance calculator
Flying to Hatch Municipal Airport? Find the distance to fly.

From to E05

Sunrise and sunset
Times for 10-Jul-2020
 Local
(UTC-6)
 Zulu
(UTC)
Morning civil twilight05:4211:42
Sunrise06:1112:11
Sunset20:1802:18
Evening civil twilight20:4602:46

Current date and time
Zulu (UTC)  10-Jul-2020 21:43:50
Local (UTC-6)  10-Jul-2020 15:43:50
 
METAR
K0A0 
23nm NE 
102115Z AUTO VRB05KT 10SM CLR 41/M02 A3008 RMK AO2
KLRU 
28nm SE 
102115Z AUTO 09005KT 10SM CLR 41/04 A3010 RMK AO2 T04070038
KTCS 
35nm N 
102053Z AUTO VRB06G16KT 10SM CLR 41/02 A3012 RMK AO2 SLP087 T04060022 56014
KDMN 
35nm SW 
102053Z AUTO 05004G16KT 10SM CLR 41/01 A3007 RMK AO2 SLP084 T04060011 58013
TAF
KLRU 
28nm SE 
101739Z 1018/1118 11008KT P6SM FEW120 FM102100 13007KT P6SM FEW120 FEW250
NOTAMs
Click for the latest NOTAMs
NOTAMs are issued by the DoD/FAA and will open in a separate window not controlled by AirNav.

 

 
 

Would you like to see your business listed on this page?

 If your business provides an interesting product or service to pilots, flight crews, aircraft, or users of the Hatch Municipal Airport, you should consider listing it here.  To start the listing process, click on the button below
 
Add a business
 

Other Pages about Hatch Municipal Airport

Update a link
 
Copyright © AirNav, LLC. All rights reserved. Privacy Policy  Contact